TimeAKDT,TemperatureF,Dew PointF,Humidity,Sea Level PressureIn,VisibilityMPH,Wind Direction,Wind SpeedMPH,Gust SpeedMPH,PrecipitationIn,Events,Conditions,WindDirDegrees,DateUTC
12:56 AM,61.0,52.0,72,30.48,10.0,South,8.1,-,N/A,,Clear,170,2013-07-20 08:56:00
1:56 AM,61.0,52.0,72,30.48,10.0,South,12.7,17.3,N/A,,Clear,180,2013-07-20 09:56:00
2:56 AM,59.0,52.0,78,30.48,10.0,SSE,11.5,-,N/A,,Clear,160,2013-07-20 10:56:00
3:29 AM,59.0,51.8,77,30.46,10.0,SSE,10.4,-,N/A,,Mostly Cloudy,160,2013-07-20 11:29:00
3:56 AM,57.9,52.0,81,30.47,10.0,SSE,10.4,16.1,N/A,,Mostly Cloudy,150,2013-07-20 11:56:00
4:11 AM,57.2,51.8,82,30.45,10.0,SSE,11.5,-,N/A,,Partly Cloudy,160,2013-07-20 12:11:00
4:56 AM,57.9,52.0,81,30.46,10.0,South,10.4,-,N/A,,Partly Cloudy,170,2013-07-20 12:56:00
5:11 AM,57.2,51.8,82,30.43,10.0,SSE,11.5,-,N/A,,Mostly Cloudy,150,2013-07-20 13:11:00
5:56 AM,57.9,53.1,84,30.45,10.0,SSE,13.8,18.4,N/A,Rain,Light Rain,160,2013-07-20 13:56:00
6:29 AM,57.2,53.6,88,30.43,10.0,South,10.4,-,N/A,Rain,Light Rain,170,2013-07-20 14:29:00
6:56 AM,59.0,53.1,81,30.43,10.0,South,11.5,-,N/A,,Overcast,170,2013-07-20 14:56:00
6:59 AM,59.0,53.6,82,30.42,10.0,South,15.0,19.6,N/A,,Overcast,170,2013-07-20 14:59:00
7:14 AM,57.2,53.6,88,30.41,10.0,SSE,11.5,-,N/A,,Mostly Cloudy,160,2013-07-20 15:14:00
7:56 AM,57.9,52.0,81,30.42,10.0,SE,15.0,19.6,N/A,,Mostly Cloudy,140,2013-07-20 15:56:00
8:56 AM,60.1,53.1,78,30.41,10.0,South,8.1,-,N/A,,Overcast,180,2013-07-20 16:56:00
9:10 AM,60.8,53.6,77,30.39,10.0,South,6.9,-,N/A,,Overcast,180,2013-07-20 17:10:00
9:56 AM,61.0,54.0,78,30.40,10.0,SSE,11.5,18.4,N/A,,Overcast,150,2013-07-20 17:56:00
10:11 AM,60.8,53.6,77,30.37,10.0,SSE,11.5,18.4,N/A,,Overcast,160,2013-07-20 18:11:00
10:56 AM,61.0,55.0,81,30.39,10.0,SSE,8.1,-,N/A,,Overcast,160,2013-07-20 18:56:00
11:56 AM,63.0,55.0,75,30.38,10.0,SSE,12.7,-,N/A,,Mostly Cloudy,150,2013-07-20 19:56:00
12:56 PM,64.9,55.9,73,30.38,10.0,SE,10.4,-,N/A,,Mostly Cloudy,140,2013-07-20 20:56:00
1:17 PM,64.4,55.4,73,30.36,9.0,SSE,11.5,-,N/A,,Overcast,150,2013-07-20 21:17:00
1:53 PM,66.2,55.4,68,30.36,10.0,East,5.8,-,N/A,,Overcast,80,2013-07-20 21:53:00
1:56 PM,66.9,55.9,68,30.38,10.0,East,8.1,-,N/A,,Overcast,90,2013-07-20 21:56:00
2:25 PM,69.8,57.2,64,30.35,10.0,East,4.6,-,N/A,,Mostly Cloudy,90,2013-07-20 22:25:00
2:56 PM,69.1,57.0,65,30.38,10.0,Variable,4.6,-,N/A,,Mostly Cloudy,0,2013-07-20 22:56:00
3:19 PM,66.2,57.2,73,30.35,9.0,Calm,Calm,-,N/A,,Mostly Cloudy,0,2013-07-20 23:19:00
3:56 PM,64.9,55.9,73,30.37,9.0,East,5.8,-,N/A,,Mostly Cloudy,100,2013-07-20 23:56:00
4:56 PM,61.0,54.0,78,30.38,10.0,ESE,4.6,-,N/A,,Mostly Cloudy,120,2013-07-21 00:56:00
5:56 PM,60.1,54.0,80,30.38,10.0,SSE,5.8,-,N/A,,Mostly Cloudy,150,2013-07-21 01:56:00
6:56 PM,57.0,51.1,81,30.38,10.0,ESE,5.8,-,N/A,,Mostly Cloudy,120,2013-07-21 02:56:00
7:56 PM,59.0,52.0,78,30.38,10.0,WSW,4.6,-,N/A,,Mostly Cloudy,250,2013-07-21 03:56:00
8:56 PM,57.9,51.1,78,30.38,10.0,NNW,10.4,-,N/A,,Scattered Clouds,340,2013-07-21 04:56:00
9:56 PM,57.0,51.1,81,30.39,10.0,North,4.6,-,N/A,,Scattered Clouds,360,2013-07-21 05:56:00
10:56 PM,54.0,50.0,86,30.40,10.0,ENE,4.6,-,N/A,,Clear,70,2013-07-21 06:56:00
11:56 PM,53.1,50.0,89,30.41,10.0,Calm,Calm,-,N/A,,Clear,0,2013-07-21 07:56:00